Location: Izdebno
(52.6670°N, 16.2170°E)
Time: 06:28:13
(UTC+02:00)

Vanguard 2 Rocket - Pass Details

Date: 26 February 2024
Orbit: 555 x 3307 km, 32.9° (Epoch: 24 April)

Event Time Altitude Azimuth Distance (km) Brightness Sun altitude
Rises 17:58:09 0° 258° (WSW) 5,338 13.6 -5.4°
Reaches altitude 10° 18:01:51 10° 248° (WSW) 4,712 12.1 -6.0°
Maximum altitude 18:13:14 30° 195° (SSW) 4,201 10.5 -7.7°
Drops below altitude 10° 18:28:15 10° 145° (SE) 6,226 10.8 -10.0°
Sets 18:34:12 0° 136° (SE) 7,285 11.1 -10.9°
